Powrót do katalogu

HULIANWANG DIGUI-91

AktywnyŁącznośćLEO
NORAD 65999·PAYLOAD·🇨🇳 China

Wystrzelony Oct 16, 2025 z Wenchang Space Launch Site

Loading…

Następne Przeloty (najbliższe 24 godziny)

TLE

ŚwieżeSource: Space-Track

Epoka: Sep 14, 2026, 14:29 UTC

1 65999U 25231E   26257.60354572 -.00000100  00000-0  52583-4 0  9994
2 65999  50.0001 214.9351 0000358  41.0668 319.0231 13.29329617 44787

Śledź HULIANWANG DIGUI-91 w czasie rzeczywistym z AllMySat

Download on the App Store